Regional Weather Roundup
Issued by NWS

Home | Current Version | Previous Version | Text Only | Print | Product List | Glossary Off
Versions: 1 2 3 4 5 6 7 8 9 10 11 12 13 14 15 16 17 18 19 20 21 22 23 24 25 26 27 28 29 30 31 32 33 34 35 36 37 38 39 40 41 42 43 44 45 46 47 48 49 50

000
ASUS43 KFSD 170202
RWRSD

WEATHER ROUNDUP FOR SOUTH DAKOTA
NATIONAL WEATHER SERVICE SIOUX FALLS SD
900 PM CDT WED APR 16 2014

NOTE: "FAIR" INDICATES FEW OR NO CLOUDS BELOW 12,000 FEET WITH NO
SIGNIFICANT WEATHER AND/OR OBSTRUCTIONS TO VISIBILITY.


SDZ001>005-009-010-012>017-170300-
NORTHWEST AND NORTH CENTRAL SOUTH DAKOTA

CITY           SKY/WX    TMP DP  RH WIND       PRES   REMARKS
FAITH            N/A     34  23  64 NE13      30.15R WCI  25
MOBRIDGE       PTCLDY    26  17  68 NE7       30.17R WCI  18
$$

SDZ012>016-024>037-041>051-057-063-072>074-170300-
SOUTHWEST AND SOUTH CENTRAL SOUTH DAKOTA

CITY           SKY/WX    TMP DP  RH WIND       PRES   REMARKS
RAPID CTY ARPT CLOUDY    33  25  72 E9        30.11R WCI  25
PIERRE         CLOUDY    35  23  61 NE15      30.16R WCI  25
CUSTER         LGT SNOW  28  25  88 E9        30.03R FOG     WCI  19
ELLSWORTH AFB  CLOUDY    34  25  69 E13       30.11R WCI  25
PHILIP         CLOUDY    35  25  66 E8        30.17R WCI  29
PINE RIDGE     MOCLDY    33  28  81 E12       30.10R WCI  24
WINNER         CLOUDY    33  24  69 N12       30.15R WCI  24
$$

SDZ004>011-016>023-039-040-170300-
NORTHEAST SOUTH DAKOTA

CITY           SKY/WX    TMP DP  RH WIND       PRES   REMARKS
ABERDEEN       CLEAR     26  21  81 N7        30.17R WCI  18
WATERTOWN      CLOUDY    28  23  81 N23       30.08R WCI  14
SISSETON         N/A     28  22  78 NE9       30.15R WCI  19
$$

SDZ017-020-022-023-036>040-048>070-170300-
SOUTHEAST SOUTH DAKOTA

CITY           SKY/WX    TMP DP  RH WIND       PRES   REMARKS
SIOUX FALLS    CLOUDY    30  27  88 N22G31    30.04R WCI  17
HURON          CLOUDY    32  24  72 N14       30.14R WCI  22
CHAMBERLAIN      N/A     33  26  75 N14       30.16R WCI  23
MITCHELL       CLOUDY    33  25  72 N18G26    30.13R WCI  22
YANKTON        CLOUDY    32  27  80 NW18G30   30.09R WCI  20
$$

ABBREVIATIONS USED IN REMARKS
   TC - TEMPERATURE IN CELSIUS
  WCI - WIND CHILL INDEX
   HX - HEAT INDEX
  VSB - VISIBILITY




USA.gov is the U.S. government's official web portal to all federal, state and local government web resources and services.